NDF1LZ LSZH-EDDH

Flight info

Callsign NDF1LZ
Flight time 1h 5m
Altitude 39000
Route DEGES3W DEGES Z1 ETAGO Z3 LBU N851 OSBIT P605 NOLGO NOLGO6A
Aircraft B38M/M-SDE1FGHILORVWXY/HB1

Departure

Time 2026-05-05 16:16
Airport Zürich Airport (LSZH)

Arrival

Time 2026-05-05 17:21
Airport Hamburg Helmut Schmidt Airport (EDDH)
Time Latitude Longitude Altitude Speed Heading
2026-05-05 15:16 47.45591 8.55587 1406 ft 0 kts
2026-05-05 16:12 47.45594 8.55587 1399 ft 1 kts
2026-05-05 16:12 47.45639 8.55602 1399 ft 6 kts 41°
2026-05-05 16:13 47.45628 8.56003 1399 ft 16 kts 96°
2026-05-05 16:13 47.45615 8.56183 1403 ft 20 kts 96°
2026-05-05 16:13 47.45598 8.56405 1405 ft 23 kts 95°
2026-05-05 16:14 47.45565 8.56881 1399 ft 18 kts 96°
2026-05-05 16:14 47.45609 8.57018 1404 ft 7 kts 13°
2026-05-05 16:15 47.45689 8.56630 1401 ft 72 kts 276°
2026-05-05 16:15 47.45873 8.53927 1761 ft 165 kts 276°
2026-05-05 16:16 47.46147 8.50408 3328 ft 182 kts 275°
2026-05-05 16:16 47.45984 8.46318 4496 ft 212 kts 246°
2026-05-05 16:17 47.44144 8.42748 6052 ft 229 kts 227°
2026-05-05 16:17 47.43075 8.40984 6831 ft 235 kts 231°
2026-05-05 16:18 47.41993 8.36367 8441 ft 253 kts 259°
2026-05-05 16:18 47.41501 8.33871 9239 ft 254 kts 237°
2026-05-05 16:18 47.38444 8.31875 10925 ft 260 kts 169°
2026-05-05 16:19 47.36839 8.33110 11843 ft 270 kts 139°
2026-05-05 16:19 47.35778 8.35431 12517 ft 285 kts 116°
2026-05-05 16:19 47.35513 8.41398 13907 ft 307 kts 75°
2026-05-05 16:20 47.37996 8.46413 15396 ft 309 kts 30°
2026-05-05 16:20 47.41651 8.49791 16815 ft 314 kts 36°
2026-05-05 16:21 47.45202 8.53906 17823 ft 335 kts 37°
2026-05-05 16:22 47.48767 8.62497 19603 ft 335 kts 91°
2026-05-05 16:22 47.48680 8.69371 20703 ft 339 kts 92°
2026-05-05 16:23 47.48710 8.76381 21887 ft 343 kts 92°
2026-05-05 16:23 47.48734 8.79923 22449 ft 345 kts 92°
2026-05-05 16:23 47.48787 8.87062 23506 ft 350 kts 92°
2026-05-05 16:24 47.48813 8.90678 23943 ft 352 kts 92°
2026-05-05 16:24 47.48838 8.94274 24355 ft 354 kts 92°
2026-05-05 16:24 47.48885 9.01583 25170 ft 359 kts 92°
2026-05-05 16:25 47.49139 9.05282 25558 ft 366 kts 75°
2026-05-05 16:25 47.52319 9.11064 26238 ft 379 kts 31°
2026-05-05 16:25 47.54737 9.12642 26598 ft 380 kts 17°
2026-05-05 16:26 47.59870 9.15339 26787 ft 403 kts 20°
2026-05-05 16:26 47.65289 9.18299 26837 ft 428 kts 20°
2026-05-05 16:27 47.68110 9.19841 26869 ft 441 kts 20°
2026-05-05 16:27 47.70996 9.21408 27295 ft 441 kts 20°
2026-05-05 16:27 47.73901 9.22970 27644 ft 445 kts 20°
2026-05-05 16:27 47.76783 9.24526 27995 ft 448 kts 20°
2026-05-05 16:28 47.79728 9.26114 28378 ft 450 kts 20°
2026-05-05 16:28 47.82676 9.27706 28726 ft 453 kts 20°
2026-05-05 16:28 47.85655 9.29317 29077 ft 456 kts 20°
2026-05-05 16:28 47.88629 9.30927 29404 ft 458 kts 21°
2026-05-05 16:29 47.91615 9.32546 29739 ft 461 kts 21°
2026-05-05 16:29 47.94643 9.34188 30036 ft 464 kts 21°
2026-05-05 16:29 47.97692 9.35844 30310 ft 466 kts 21°
2026-05-05 16:29 48.00762 9.37513 30593 ft 468 kts 20°
2026-05-05 16:30 48.03799 9.39166 30829 ft 471 kts 20°
2026-05-05 16:30 48.06895 9.40855 31043 ft 474 kts 21°
2026-05-05 16:30 48.10006 9.42552 31380 ft 475 kts 21°
2026-05-05 16:30 48.13114 9.44250 31629 ft 477 kts 20°
2026-05-05 16:31 48.16236 9.45720 31868 ft 479 kts 10°
2026-05-05 16:31 48.19569 9.46091 32173 ft 479 kts 359°
2026-05-05 16:31 48.22942 9.46138 32349 ft 483 kts 359°
2026-05-05 16:31 48.26268 9.46174 32675 ft 484 kts 359°
2026-05-05 16:32 48.29645 9.46192 32981 ft 485 kts
2026-05-05 16:32 48.33025 9.46201 33376 ft 484 kts
2026-05-05 16:32 48.35252 9.46205 33614 ft 483 kts 360°
2026-05-05 16:32 48.38606 9.46209 33949 ft 483 kts 360°
2026-05-05 16:33 48.41974 9.46212 34238 ft 483 kts 360°
2026-05-05 16:33 48.46426 9.46216 34612 ft 482 kts 359°
2026-05-05 16:33 48.48662 9.46218 34807 ft 482 kts 359°
2026-05-05 16:33 48.52020 9.46218 35077 ft 482 kts 359°
2026-05-05 16:34 48.55380 9.46181 35341 ft 482 kts 359°
2026-05-05 16:34 48.58746 9.46145 35616 ft 482 kts 359°
2026-05-05 16:34 48.62069 9.46111 35867 ft 482 kts 358°
2026-05-05 16:34 48.65421 9.46077 36118 ft 482 kts 358°
2026-05-05 16:35 48.68778 9.46043 36369 ft 482 kts 358°
2026-05-05 16:35 48.72112 9.45702 36594 ft 479 kts 346°
2026-05-05 16:35 48.75268 9.44177 36875 ft 473 kts 335°
2026-05-05 16:35 48.78306 9.42313 37016 ft 475 kts 335°
2026-05-05 16:36 48.81365 9.40406 37244 ft 474 kts 334°
2026-05-05 16:36 48.84412 9.38469 37465 ft 474 kts 334°
2026-05-05 16:36 48.87451 9.36511 37690 ft 473 kts 334°
2026-05-05 16:36 48.90478 9.34722 37890 ft 476 kts 343°
2026-05-05 16:37 48.93761 9.33979 38162 ft 477 kts 355°
2026-05-05 16:37 48.97091 9.33654 38331 ft 478 kts 354°
2026-05-05 16:37 49.00416 9.33333 38514 ft 478 kts 354°
2026-05-05 16:37 49.03698 9.33046 38662 ft 478 kts 354°
2026-05-05 16:38 49.07017 9.32773 38795 ft 477 kts 354°
2026-05-05 16:38 49.10344 9.32506 38840 ft 478 kts 354°
2026-05-05 16:38 49.16940 9.31977 38845 ft 476 kts 355°
2026-05-05 16:39 49.23569 9.31455 38826 ft 474 kts 355°
2026-05-05 16:39 49.30177 9.30940 38831 ft 475 kts 355°
2026-05-05 16:40 49.36753 9.30726 38820 ft 476 kts
2026-05-05 16:40 49.43315 9.31703 38827 ft 476 kts
2026-05-05 16:41 49.49917 9.32673 38826 ft 476 kts
2026-05-05 16:41 49.56495 9.33648 38827 ft 476 kts
2026-05-05 16:42 49.63082 9.34627 38828 ft 476 kts
2026-05-05 16:42 49.69678 9.35610 38827 ft 476 kts
2026-05-05 16:43 49.72911 9.36416 38811 ft 476 kts 16°
2026-05-05 16:43 49.75961 9.38431 38825 ft 475 kts 33°
2026-05-05 16:43 49.81181 9.44671 38824 ft 478 kts 40°
2026-05-05 16:44 49.86306 9.51218 38819 ft 478 kts 40°
2026-05-05 16:44 49.91381 9.57824 38806 ft 478 kts 41°
2026-05-05 16:45 49.96476 9.64484 38814 ft 478 kts 41°
2026-05-05 16:45 50.01551 9.71138 38817 ft 478 kts 41°
2026-05-05 16:46 50.07147 9.76503 38810 ft 476 kts 16°
2026-05-05 16:46 50.10395 9.77483 38807 ft 474 kts
2026-05-05 16:46 50.13700 9.77413 38824 ft 473 kts 356°
2026-05-05 16:47 50.20281 9.76937 38800 ft 475 kts 354°
2026-05-05 16:47 50.26851 9.76314 38812 ft 474 kts 354°
2026-05-05 16:48 50.33428 9.75654 38804 ft 474 kts 354°
2026-05-05 16:48 50.40034 9.74987 38803 ft 474 kts 354°
2026-05-05 16:49 50.46586 9.74323 38804 ft 473 kts 354°
2026-05-05 16:49 50.53177 9.73653 38801 ft 473 kts 354°
2026-05-05 16:50 50.59697 9.72989 38806 ft 473 kts 354°
2026-05-05 16:50 50.66284 9.72315 38808 ft 473 kts 354°
2026-05-05 16:51 50.72833 9.71636 38803 ft 473 kts 354°
2026-05-05 16:51 50.79404 9.70954 38802 ft 473 kts 354°
2026-05-05 16:52 50.85958 9.70274 38803 ft 473 kts 354°
2026-05-05 16:52 50.92544 9.70071 38789 ft 474 kts 356°
2026-05-05 16:53 50.99164 9.69846 38793 ft 477 kts 356°
2026-05-05 16:53 51.05803 9.69612 38805 ft 477 kts 356°
2026-05-05 16:54 51.12417 9.69376 38804 ft 477 kts 356°
2026-05-05 16:54 51.19074 9.69141 38815 ft 477 kts 357°
2026-05-05 16:55 51.25681 9.69963 38828 ft 480 kts
2026-05-05 16:55 51.32314 9.71023 38808 ft 479 kts
2026-05-05 16:56 51.38961 9.72102 38708 ft 481 kts
2026-05-05 16:56 51.42289 9.72643 38497 ft 478 kts
2026-05-05 16:56 51.45552 9.73177 38206 ft 477 kts
2026-05-05 16:57 51.48871 9.73790 37912 ft 478 kts
2026-05-05 16:57 51.52184 9.74413 37613 ft 478 kts
2026-05-05 16:57 51.55480 9.75027 37321 ft 479 kts
2026-05-05 16:57 51.58755 9.75636 37040 ft 479 kts
2026-05-05 16:58 51.62069 9.76255 36761 ft 478 kts
2026-05-05 16:58 51.65383 9.76884 36488 ft 477 kts
2026-05-05 16:58 51.68641 9.77503 36216 ft 475 kts
2026-05-05 16:58 51.71913 9.78125 35930 ft 473 kts
2026-05-05 16:59 51.75177 9.78746 35592 ft 468 kts
2026-05-05 16:59 51.78395 9.79360 35050 ft 466 kts
2026-05-05 16:59 51.81611 9.79974 34391 ft 467 kts
2026-05-05 16:59 51.84808 9.80585 33822 ft 467 kts
2026-05-05 17:00 51.88025 9.81205 33251 ft 465 kts
2026-05-05 17:00 51.91239 9.81825 32719 ft 462 kts
2026-05-05 17:00 51.94418 9.82441 32271 ft 457 kts
2026-05-05 17:00 51.97570 9.83053 31848 ft 453 kts
2026-05-05 17:01 52.00698 9.83660 31365 ft 450 kts
2026-05-05 17:01 52.03802 9.84263 30861 ft 448 kts
2026-05-05 17:01 52.06844 9.84856 30390 ft 445 kts
2026-05-05 17:01 52.09915 9.85455 29925 ft 443 kts
2026-05-05 17:02 52.12981 9.86053 29391 ft 440 kts
2026-05-05 17:02 52.15964 9.86637 28923 ft 436 kts
2026-05-05 17:02 52.18970 9.87225 28476 ft 432 kts
2026-05-05 17:02 52.21957 9.87810 28032 ft 427 kts
2026-05-05 17:03 52.24897 9.88248 27454 ft 425 kts 356°
2026-05-05 17:03 52.27773 9.87504 26585 ft 424 kts 340°
2026-05-05 17:03 52.30622 9.86270 25795 ft 426 kts 344°
2026-05-05 17:03 52.33507 9.85224 25005 ft 423 kts 345°
2026-05-05 17:04 52.36372 9.84214 24267 ft 418 kts 345°
2026-05-05 17:04 52.39197 9.83235 23543 ft 413 kts 345°
2026-05-05 17:04 52.41994 9.82271 22716 ft 408 kts 346°
2026-05-05 17:04 52.44730 9.81329 21929 ft 403 kts 346°
2026-05-05 17:05 52.47465 9.80387 21141 ft 398 kts 346°
2026-05-05 17:05 52.50166 9.79456 20390 ft 393 kts 346°
2026-05-05 17:05 52.52851 9.78529 19660 ft 389 kts 346°
2026-05-05 17:05 52.55465 9.77988 18963 ft 385 kts
2026-05-05 17:06 52.58084 9.78694 18479 ft 375 kts 13°
2026-05-05 17:06 52.60574 9.79740 18102 ft 363 kts 14°
2026-05-05 17:06 52.62980 9.80761 17726 ft 350 kts 14°
2026-05-05 17:06 52.65299 9.81745 17415 ft 336 kts 14°
2026-05-05 17:07 52.67522 9.82694 17168 ft 332 kts 14°
2026-05-05 17:07 52.69773 9.83659 16886 ft 336 kts 14°
2026-05-05 17:07 52.72043 9.84630 16617 ft 336 kts 14°
2026-05-05 17:07 52.74311 9.85607 16338 ft 335 kts 14°
2026-05-05 17:08 52.76502 9.86554 16081 ft 334 kts 14°
2026-05-05 17:08 52.78713 9.87505 15901 ft 331 kts 14°
2026-05-05 17:08 52.80955 9.88477 15871 ft 332 kts 14°
2026-05-05 17:08 52.83197 9.89444 15885 ft 332 kts 14°
2026-05-05 17:09 52.85409 9.90398 15892 ft 332 kts 14°
2026-05-05 17:09 52.87658 9.91402 15885 ft 339 kts 14°
2026-05-05 17:09 52.89995 9.92444 15566 ft 351 kts 14°
2026-05-05 17:09 52.92386 9.93505 15296 ft 356 kts 14°
2026-05-05 17:10 52.94825 9.94163 15032 ft 355 kts 357°
2026-05-05 17:10 52.97247 9.93542 14931 ft 352 kts 345°
2026-05-05 17:10 52.99614 9.92537 14905 ft 352 kts 344°
2026-05-05 17:10 53.01969 9.91527 14892 ft 353 kts 344°
2026-05-05 17:11 53.04335 9.90515 14657 ft 353 kts 344°
2026-05-05 17:11 53.06692 9.89507 14161 ft 346 kts 344°
2026-05-05 17:11 53.09028 9.88497 13434 ft 344 kts 344°
2026-05-05 17:11 53.11309 9.87503 12798 ft 340 kts 344°
2026-05-05 17:12 53.13598 9.86522 12080 ft 337 kts 344°
2026-05-05 17:12 53.15840 9.85573 11406 ft 333 kts 344°
2026-05-05 17:12 53.18078 9.84617 10776 ft 330 kts 344°
2026-05-05 17:12 53.20293 9.83665 10361 ft 326 kts 344°
2026-05-05 17:13 53.22495 9.82730 10115 ft 327 kts 344°
2026-05-05 17:13 53.24708 9.81797 9869 ft 325 kts 344°
2026-05-05 17:13 53.26852 9.80888 9370 ft 324 kts 344°
2026-05-05 17:13 53.29030 9.79956 8919 ft 321 kts 344°
2026-05-05 17:14 53.31170 9.79031 8291 ft 316 kts 344°
2026-05-05 17:14 53.33289 9.78063 7638 ft 313 kts 339°
2026-05-05 17:14 53.35287 9.76655 7037 ft 310 kts 334°
2026-05-05 17:14 53.37238 9.75136 6434 ft 307 kts 334°
2026-05-05 17:15 53.39144 9.73614 5790 ft 304 kts 334°
2026-05-05 17:15 53.41038 9.72071 5160 ft 301 kts 334°
2026-05-05 17:15 53.42906 9.70529 4681 ft 293 kts 334°
2026-05-05 17:15 53.44704 9.69093 4398 ft 278 kts 342°
2026-05-05 17:16 53.46555 9.68682 4127 ft 262 kts
2026-05-05 17:16 53.48226 9.69595 3918 ft 247 kts 32°
2026-05-05 17:16 53.49481 9.71384 3683 ft 234 kts 48°
2026-05-05 17:16 53.50492 9.73446 3449 ft 223 kts 51°
2026-05-05 17:17 53.51457 9.75443 3203 ft 214 kts 50°
2026-05-05 17:17 53.52387 9.77326 2965 ft 205 kts 50°
2026-05-05 17:17 53.53261 9.79091 2766 ft 191 kts 50°
2026-05-05 17:17 53.54096 9.80773 2514 ft 180 kts 50°
2026-05-05 17:18 53.54878 9.82357 2266 ft 171 kts 51°
2026-05-05 17:18 53.55614 9.83864 2002 ft 167 kts 51°
2026-05-05 17:18 53.56336 9.85359 1780 ft 161 kts 51°
2026-05-05 17:18 53.56997 9.86774 1531 ft 150 kts 52°
2026-05-05 17:19 53.57658 9.88099 1360 ft 142 kts 50°
2026-05-05 17:19 53.58309 9.89332 1184 ft 143 kts 49°
2026-05-05 17:19 53.58957 9.90580 959 ft 142 kts 50°
2026-05-05 17:19 53.59599 9.91890 795 ft 147 kts 51°
2026-05-05 17:20 53.60025 9.92773 674 ft 145 kts 51°
2026-05-05 17:20 53.60677 9.94089 473 ft 147 kts 50°
2026-05-05 17:20 53.61343 9.95405 294 ft 147 kts 50°
2026-05-05 17:20 53.62190 9.97116 57 ft 136 kts 50°
2026-05-05 17:21 53.62565 9.97879 48 ft 116 kts 50°
2026-05-05 17:21 53.63087 9.98926 50 ft 66 kts 50°
2026-05-05 17:21 53.63219 9.99192 55 ft 30 kts 51°
2026-05-05 17:22 53.63281 9.99603 52 ft 10 kts 97°
2026-05-05 17:22 53.63277 9.99658 52 ft 0 kts 98°
2026-05-05 17:23 53.63274 9.99691 53 ft 8 kts 97°
2026-05-05 17:23 53.63315 9.99842 46 ft 21 kts 50°
2026-05-05 17:24 53.63406 10.00021 50 ft 13 kts 51°
2026-05-05 17:24 53.63414 10.00146 49 ft 12 kts 116°
2026-05-05 17:24 53.63341 10.00227 49 ft 14 kts 171°
2026-05-05 17:24 53.63245 10.00243 53 ft 11 kts 175°
2026-05-05 17:25 53.63209 10.00262 51 ft 4 kts 125°
2026-05-05 17:25 53.63206 10.00296 53 ft 5 kts 93°
2026-05-05 17:25 53.63208 10.00363 53 ft 1 kts 86°
2026-05-05 17:25 53.63208 10.00364 53 ft 0 kts 86°